Dobrodošli na spletni strani vremenske postaje Senovo. Vse informacije so informativnega značaja, saj vremenska postaja ni del državne mreže meteoroloških postaj. AKTUALNIH OBVESTIL NI.


Posebna pozornost v zvezi z vremenskimi dogajanji ni potrebna.    Posebna pozornost v zvezi z vremenskimi dogajanji ni potrebna.

Pogled proti Armezu več informacij Pogled proti Armezu


Lisca več informacij Lisca


Radar strel več informacij blitzortung!


Radar padavin več informacij rain snow radar


Obiščite še:

Template documentation
and downloads

And another site



Weather Underground, zgodovina - Tekstovno

Dnevni povzetek za Februar 19, 2018 Enote:  Metrično    Angleško   Obe
« Predhodni Dan
Naslednji Dan »
Dnevni Tedenski Mesečni Letni Po meri
  Trenutno: Višja: Nižja: Povprečje:
Temperatura: -17 °C -17.8 °C -17.6 °C -17.3 °C
Točka rosišča: -20.8 °C -17.8 °C -21.6 °C -21.1 °C
Vlažnost: 60 % Humidity % 57 % 60 %
Hitrost vetra: 11.9 km/h 0 km/h 4.2 km/h 11.1 km/h
Sunki vetra: 22.5 km/h 0 km/h - -
Veter:NE - - ENE
Zračni tlak: 34567.7 hPa 0 hPa 34533.8 hPa -
Padavine: 0 mm      
Historical Graphs
 
 
Tabelarni podarki za Februar 19, 2018
Čas Temperatura Točka rosišča Zračni tlak Veter Hitrost vetra Sunki vetra Vlažnost Intenziteta padavin (urna)
-17.8 °C -17.8 °C 0 hPa Calm     Humidity % 0 mm
00:04 -16.9 °C -20.2 °C 34635.4 hPa NE 12.2 km/h 22.5 km/h 65 % 0 mm
00:09 -16.9 °C -20.2 °C 34635.4 hPa NE 10.9 km/h 17.9 km/h 65 % 0 mm
00:14 -16.9 °C -20.2 °C 34635.4 hPa ENE 12.2 km/h 42.2 km/h 65 % 0 mm
00:19 -16.9 °C -20.2 °C 34635.4 hPa NE 15.3 km/h 42.2 km/h 65 % 0 mm
00:24 -16.9 °C -20.2 °C 34635.4 hPa NE 15.3 km/h 31.4 km/h 65 % 0 mm
00:29 -16.9 °C -20.2 °C 34635.4 hPa NE 15.8 km/h 31.4 km/h 65 % 0 mm
00:34 -16.9 °C -20.2 °C 34635.4 hPa NE 16.9 km/h 29 km/h 65 % 0 mm
00:39 -16.9 °C -20.3 °C 34635.4 hPa NE 15.8 km/h 29 km/h 64 % 0 mm
00:44 -16.9 °C -20.3 °C 34635.4 hPa ENE 15.8 km/h 28.5 km/h 64 % 0 mm
00:49 -16.9 °C -20.3 °C 34635.4 hPa ENE 17.4 km/h 38.3 km/h 64 % 0 mm
00:54 -16.9 °C -20.3 °C 34635.4 hPa ENE 17.4 km/h 38.3 km/h 64 % 0 mm
00:59 -16.9 °C -20.3 °C 34635.4 hPa ENE 15.3 km/h 26.2 km/h 64 % 0 mm
01:04 -17 °C -20.5 °C 34635.4 hPa NE 12.4 km/h 25.4 km/h 63 % 0 mm
01:09 -17 °C -20.5 °C 34635.4 hPa ENE 11.4 km/h 31.9 km/h 63 % 0 mm
01:14 -17.1 °C -20.6 °C 34635.4 hPa NE 14.2 km/h 31.9 km/h 63 % 0 mm
01:19 -17.1 °C -20.7 °C 34635.4 hPa NE 12.4 km/h 27.2 km/h 62 % 0 mm
01:24 -17.1 °C -20.7 °C 34635.4 hPa ENE 11.4 km/h 32.3 km/h 62 % 0 mm
01:29 -17.1 °C -20.7 °C 34635.4 hPa NE 15 km/h 32.3 km/h 62 % 0 mm
01:34 -17.1 °C -20.7 °C 34635.4 hPa NE 16.6 km/h 28.5 km/h 62 % 0 mm
01:39 -17.1 °C -20.7 °C 34635.4 hPa ENE 17.1 km/h 39.4 km/h 62 % 0 mm
01:44 -17.1 °C -20.8 °C 34635.4 hPa ENE 14.2 km/h 39.4 km/h 61 % 0 mm
01:49 -17.1 °C -20.8 °C 34635.4 hPa ENE 12.4 km/h 24.8 km/h 61 % 0 mm
01:54 -17.1 °C -20.8 °C 34635.4 hPa ENE 11.6 km/h 33.2 km/h 61 % 0 mm
01:59 -17.2 °C -21 °C 34635.4 hPa ENE 10.3 km/h 33.2 km/h 60 % 0 mm
02:04 -17.2 °C -21 °C 34635.4 hPa NE 11.4 km/h 27.2 km/h 60 % 0 mm
02:09 -17.2 °C -21 °C 34635.4 hPa NE 12.4 km/h 27.2 km/h 60 % 0 mm
02:14 -17.2 °C -21 °C 34635.4 hPa NE 13.7 km/h 36.5 km/h 60 % 0 mm
02:19 -17.2 °C -21 °C 34635.4 hPa NNE 14.5 km/h 36.5 km/h 60 % 0 mm
02:24 -17.2 °C -21.2 °C 34601.5 hPa NE 13.7 km/h 26.7 km/h 59 % 0 mm
02:29 -17.2 °C -21.2 °C 34601.5 hPa ENE 15.6 km/h 28.5 km/h 59 % 0 mm
02:34 -17.2 °C -21.2 °C 34601.5 hPa NE 16.6 km/h 28.5 km/h 59 % 0 mm
02:39 -17.2 °C -21.2 °C 34601.5 hPa ENE 15.6 km/h 33.2 km/h 59 % 0 mm
02:44 -17.2 °C -21.2 °C 34601.5 hPa ENE 17.9 km/h 35.2 km/h 59 % 0 mm
02:49 -17.2 °C -21.2 °C 34601.5 hPa ENE 18.3 km/h 35.2 km/h 59 % 0 mm
02:54 -17.2 °C -21.2 °C 34567.7 hPa ENE 15.8 km/h 33.2 km/h 59 % 0 mm
02:59 -17.2 °C -21.3 °C 34567.7 hPa ENE 16.1 km/h 33.2 km/h 58 % 0 mm
03:04 -17.2 °C -21.3 °C 34567.7 hPa NE 15.3 km/h 31.4 km/h 58 % 0 mm
03:09 -17.2 °C -21.3 °C 34601.5 hPa NE 13.2 km/h 37 km/h 58 % 0 mm
03:14 -17.2 °C -21.3 °C 34601.5 hPa NE 10.6 km/h 37 km/h 58 % 0 mm
03:19 -17.2 °C -21.4 °C 34601.5 hPa NE 11.4 km/h 23.8 km/h 57 % 0 mm
03:24 -17.2 °C -21.4 °C 34567.7 hPa NE 11.9 km/h 24.8 km/h 57 % 0 mm
03:29 -17.2 °C -21.4 °C 34567.7 hPa NE 12.7 km/h 24.8 km/h 57 % 0 mm
03:34 -17.2 °C -21.4 °C 34567.7 hPa ENE 12.4 km/h 27.2 km/h 57 % 0 mm
03:39 -17.2 °C -21.4 °C 34567.7 hPa ENE 11.6 km/h 27.2 km/h 57 % 0 mm
03:44 -17.2 °C -21.4 °C 34567.7 hPa NE 15 km/h 26.7 km/h 57 % 0 mm
03:49 -17.3 °C -21.5 °C 34567.7 hPa NE 13.7 km/h 26.7 km/h 57 % 0 mm
03:54 -17.3 °C -21.5 °C 34567.7 hPa NE 11.9 km/h 27.7 km/h 57 % 0 mm
03:59 -17.3 °C -21.5 °C 34567.7 hPa NE 14.2 km/h 27.7 km/h 57 % 0 mm
04:04 -17.3 °C -21.5 °C 34567.7 hPa NE 14.2 km/h 28.5 km/h 57 % 0 mm
04:09 -17.3 °C -21.5 °C 34567.7 hPa NNE 14.5 km/h 28.5 km/h 57 % 0 mm
04:14 -17.3 °C -21.5 °C 34567.7 hPa NE 13.7 km/h 28.5 km/h 57 % 0 mm
04:19 -17.3 °C -21.5 °C 34567.7 hPa NE 10.6 km/h 20.3 km/h 57 % 0 mm
04:24 -17.3 °C -21.5 °C 34567.7 hPa NE 9.7 km/h 20.3 km/h 57 % 0 mm
04:29 -17.3 °C -21.6 °C 34567.7 hPa NE 10.9 km/h 22.5 km/h 57 % 0 mm
04:34 -17.3 °C -21.6 °C 34567.7 hPa NE 10.3 km/h 26.2 km/h 57 % 0 mm
04:39 -17.3 °C -21.6 °C 34567.7 hPa NE 11.9 km/h 26.2 km/h 57 % 0 mm
04:44 -17.4 °C -21.4 °C 34567.7 hPa NE 13.2 km/h 26.2 km/h 58 % 0 mm
04:49 -17.4 °C -21.4 °C 34567.7 hPa NE 10.1 km/h 20.9 km/h 58 % 0 mm
04:54 -17.4 °C -21.4 °C 34567.7 hPa ENE 7.6 km/h 14.5 km/h 58 % 0 mm
04:59 -17.4 °C -21.4 °C 34567.7 hPa East 8.5 km/h 19.6 km/h 58 % 0 mm
05:04 -17.4 °C -21.4 °C 34567.7 hPa East 8.5 km/h 19.6 km/h 58 % 0 mm
05:09 -17.4 °C -21.4 °C 34567.7 hPa ENE 7.7 km/h 14.5 km/h 58 % 0 mm
05:14 -17.4 °C -21.5 °C 34567.7 hPa NE 6.9 km/h 14.5 km/h 58 % 0 mm
05:19 -17.4 °C -21.5 °C 34567.7 hPa NE 6.3 km/h 14 km/h 58 % 0 mm
05:25 -17.4 °C -21.5 °C 34567.7 hPa ENE 5 km/h 14 km/h 58 % 0 mm
05:30 -17.4 °C -21.5 °C 34567.7 hPa NE 5 km/h 15 km/h 58 % 0 mm
05:34 -17.4 °C -21.5 °C 34567.7 hPa NE 7.7 km/h 15.6 km/h 58 % 0 mm
05:39 -17.4 °C -21.5 °C 34567.7 hPa NE 9.7 km/h 22 km/h 58 % 0 mm
05:44 -17.5 °C -21.4 °C 34567.7 hPa NE 6.4 km/h 22 km/h 59 % 0 mm
05:49 -17.5 °C -21.4 °C 34567.7 hPa East 4.2 km/h 8.9 km/h 59 % 0 mm
05:54 -17.5 °C -21.4 °C 34567.7 hPa ENE 7.2 km/h 15 km/h 59 % 0 mm
05:59 -17.5 °C -21.4 °C 34567.7 hPa ENE 7.2 km/h 15 km/h 59 % 0 mm
06:04 -17.5 °C -21.4 °C 34567.7 hPa East 6 km/h 12.7 km/h 59 % 0 mm
06:09 -17.5 °C -21.4 °C 34567.7 hPa ENE 8.5 km/h 22.5 km/h 59 % 0 mm
06:14 -17.5 °C -21.4 °C 34567.7 hPa ENE 10.6 km/h 22.5 km/h 59 % 0 mm
06:19 -17.5 °C -21.4 °C 34567.7 hPa East 10.1 km/h 16.9 km/h 59 % 0 mm
06:24 -17.5 °C -21.4 °C 34533.8 hPa East 10.6 km/h 19.2 km/h 59 % 0 mm
06:29 -17.5 °C -21.4 °C 34533.8 hPa East 10.6 km/h 20.9 km/h 59 % 0 mm
06:34 -17.5 °C -21.4 °C 34533.8 hPa ENE 9.8 km/h 20.9 km/h 59 % 0 mm
06:39 -17.5 °C -21.4 °C 34533.8 hPa ENE 7.6 km/h 15.6 km/h 59 % 0 mm
06:44 -17.5 °C -21.4 °C 34533.8 hPa NE 4.7 km/h 9.8 km/h 59 % 0 mm
06:49 -17.5 °C -21.4 °C 34533.8 hPa ENE 5.6 km/h 11.1 km/h 59 % 0 mm
06:54 -17.6 °C -21.5 °C 34567.7 hPa East 6.4 km/h 11.1 km/h 59 % 0 mm
06:59 -17.6 °C -21.5 °C 34567.7 hPa East 5 km/h 10.3 km/h 59 % 0 mm
07:04 -17.6 °C -21.5 °C 34567.7 hPa ENE 5.6 km/h 14.5 km/h 59 % 0 mm
07:09 -17.6 °C -21.3 °C 34567.7 hPa ENE 7.6 km/h 19.2 km/h 60 % 0 mm
07:14 -17.6 °C -21.3 °C 34567.7 hPa ENE 10.3 km/h 19.2 km/h 60 % 0 mm
07:19 -17.6 °C -21.3 °C 34567.7 hPa ENE 10.9 km/h 19.2 km/h 60 % 0 mm
07:24 -17.6 °C -21.3 °C 34567.7 hPa East 8.9 km/h 14.5 km/h 60 % 0 mm
07:29 -17.6 °C -21.3 °C 34567.7 hPa ESE 8.2 km/h 14 km/h 60 % 0 mm
07:34 -17.6 °C -21.3 °C 34567.7 hPa East 8.2 km/h 14 km/h 60 % 0 mm
07:39 -17.6 °C -21.3 °C 34567.7 hPa ESE 7.7 km/h 11.1 km/h 60 % 0 mm
07:44 -17.5 °C -21.3 °C 34567.7 hPa East 6.9 km/h 11.1 km/h 60 % 0 mm
07:49 -17.5 °C -21.2 °C 34567.7 hPa East 7.6 km/h 9.8 km/h 61 % 0 mm
07:54 -17.5 °C -21.2 °C 34567.7 hPa East 7.2 km/h 12.2 km/h 61 % 0 mm
07:59 -17.5 °C -21.2 °C 34567.7 hPa East 7.2 km/h 12.2 km/h 61 % 0 mm
08:04 -17.5 °C -21.2 °C 34567.7 hPa ESE 6.4 km/h 11.1 km/h 61 % 0 mm
08:10 -17.5 °C -21.2 °C 34567.7 hPa East 6.8 km/h 16.9 km/h 61 % 0 mm
08:15 -17.5 °C -21.2 °C 34567.7 hPa East 6.8 km/h 16.9 km/h 61 % 0 mm
08:20 -17.5 °C -21.2 °C 34567.7 hPa East 6 km/h 10.3 km/h 61 % 0 mm
08:25 -17.5 °C -21.1 °C 34567.7 hPa East 6.8 km/h 10.3 km/h 62 % 0 mm
08:30 -17.4 °C -21 °C 34567.7 hPa East 7.7 km/h 14 km/h 62 % 0 mm
08:35 -17.4 °C -21 °C 34567.7 hPa ENE 6.8 km/h 15.6 km/h 62 % 0 mm
08:40 -17.4 °C -21 °C 34567.7 hPa ENE 7.7 km/h 15.6 km/h 62 % 0 mm
08:45 -17.4 °C -21 °C 34567.7 hPa ENE 8.2 km/h 15.6 km/h 62 % 0 mm
08:50 -17.4 °C -21 °C 34567.7 hPa East 9 km/h 16.9 km/h 62 % 0 mm
08:55 -17.3 °C -20.9 °C 34567.7 hPa ENE 12.2 km/h 22 km/h 62 % 0 mm
09:00 -17.3 °C -20.9 °C 34567.7 hPa ENE 11.9 km/h 22 km/h 62 % 0 mm
09:05 -17.3 °C -20.9 °C 34567.7 hPa East 10.1 km/h 16.9 km/h 62 % 0 mm
09:10 -17.3 °C -20.9 °C 34533.8 hPa East 9.7 km/h 16.3 km/h 62 % 0 mm
09:15 -17.3 °C -20.9 °C 34533.8 hPa East 9.8 km/h 16.9 km/h 62 % 0 mm
09:20 -17.3 °C -20.9 °C 34533.8 hPa ENE 11.9 km/h 22.5 km/h 62 % 0 mm
09:25 -17.2 °C -20.8 °C 34567.7 hPa ENE 12.4 km/h 22.5 km/h 62 % 0 mm
09:30 -17.2 °C -20.8 °C 34567.7 hPa ENE 13.5 km/h 22 km/h 62 % 0 mm
09:35 -17.2 °C -20.8 °C 34567.7 hPa ENE 14.8 km/h 24.8 km/h 62 % 0 mm
09:40 -17.2 °C -20.8 °C 34567.7 hPa ENE 11.9 km/h 24.8 km/h 62 % 0 mm
09:45 -17.2 °C -20.9 °C 34567.7 hPa ENE 12.2 km/h 27.7 km/h 61 % 0 mm
09:50 -17.1 °C -20.8 °C 34567.7 hPa ENE 14.2 km/h 27.7 km/h 61 % 0 mm
09:55 -17.1 °C -20.8 °C 34601.5 hPa ENE 13.5 km/h 20.9 km/h 61 % 0 mm
10:00 -17.1 °C -20.8 °C 34601.5 hPa ENE 14 km/h 24.3 km/h 61 % 0 mm
10:05 -17.1 °C -20.8 °C 34601.5 hPa ENE 13.7 km/h 24.3 km/h 61 % 0 mm
10:10 -17.1 °C -20.8 °C 34567.7 hPa ENE 14.2 km/h 27.7 km/h 61 % 0 mm
10:15 -17.1 °C -20.9 °C 34567.7 hPa ENE 14 km/h 27.7 km/h 60 % 0 mm
10:20 -17.1 °C -20.9 °C 34567.7 hPa ENE 12.4 km/h 24.8 km/h 60 % 0 mm
10:25 -17.1 °C -20.9 °C 34567.7 hPa ENE 13.7 km/h 26.2 km/h 60 % 0 mm
10:30 -17.1 °C -20.9 °C 34567.7 hPa ENE 14.8 km/h 26.2 km/h 60 % 0 mm
10:35 -17 °C -20.8 °C 34567.7 hPa NE 11.9 km/h 22.5 km/h 60 % 0 mm
Vremenska postaja Senovo
Podatki zbrani iz Weather Underground - 2 mb

Script developed by  Jim McMurry - jmcmurry@mwt.net Adapted for the template by  Wim van der Kuil - Leuven-Template.eu

Vremenski podatki so objavljeni na:

European Weather Network

WeatherCloud

Weather Underground

AWEKAS

HAMweather, WeatherForYou, PWS Weather

MapView

Geostik

Slovenia weather network

Oprema, ki se uporablja:

Vremenski program
Cumulus

Vremenski server
Asus

Cumulus

Asus